Weather History for KARW - September, 2012

Change the Weather History Date:

Monday, September 3, 2012

  Actual Average (KHXD) Record (KHXD)
Temperature  
Mean Temperature 82 °F -  
Max Temperature 87 °F 86 °F - (-1)
Min Temperature 78 °F 70 °F - (-1)
Cooling Degree Days 18    
Growing Degree Days 32 (Base 50)    
Moisture  
Dew Point 72 °F    
Average Humidity 72    
Maximum Humidity 83    
Minimum Humidity 62    
Precipitation  
Precipitation 0.00 in - - ()
Sea Level Pressure  
Sea Level Pressure 30.01 in    
Wind  
Wind Speed 5 mph (SSW)    
Max Wind Speed 12 mph    
Max Gust Speed 18 mph    
Visibility 8 miles    
Events Thunderstorm    
Averages and records for this station are not official NWS values.
T = Trace of Precipitation, MM = Missing Value Source: NWS Daily Summary

Daily Weather History Graph

Daily Weather History Graph

Search for Another Location

Airport or City:

Trip Planner

Search our weather history database for the weather conditions in past years. The results will help you decide how hot, cold, wet, or windy it might be!

Date:

Astronomy

Sep. 03, 2012 Rise Set
Actual Time 6:59 AM EDT 7:43 PM EDT
Civil Twilight 6:34 AM EDT 8:08 PM EDT
Nautical Twilight 6:04 AM EDT 8:38 PM EDT
Astronomical Twilight 5:34 AM EDT 9:08 PM EDT
Moon 9:18 PM EDT (9/3) 9:51 AM EDT (9/3)
Length of Visible Light 13h 34m
Length of Day
12h 44m
Waning Gibbous, 90% of the Moon is Illuminated
Sep 3
Waning Gibbous
Sep 8
Last Quarter
Sep 15
New
Sep 22
First Quarter
Sep 29
Full

Hourly Weather History & Observations

Time (EDT) Temp. Heat Index Dew Point Humidity Pressure Visibility Wind Dir Wind Speed Gust Speed Precip Events Conditions
12:15 AM 80.6 °F 85.4 °F 73.4 °F 79% 30.02 in 10.0 mi SSW 5.8 mph - N/A   Clear
12:35 AM 80.6 °F 85.4 °F 73.4 °F 79% 30.02 in 7.0 mi SSW 4.6 mph - N/A   Clear
12:55 AM 80.6 °F 85.4 °F 73.4 °F 79% 30.01 in 10.0 mi SSW 4.6 mph - N/A   Clear
1:15 AM 80.6 °F 85.4 °F 73.4 °F 79% 30.01 in 10.0 mi SSW 4.6 mph - N/A   Clear
1:35 AM 80.6 °F 85.4 °F 73.4 °F 79% 30.01 in 10.0 mi South 3.5 mph - N/A   Clear
1:55 AM 80.6 °F 85.4 °F 73.4 °F 79% 30.01 in 10.0 mi SSW 4.6 mph - N/A   Clear
2:15 AM 80.6 °F 85.4 °F 73.4 °F 79% 30.01 in 10.0 mi SSW 5.8 mph - N/A   Clear
2:35 AM 80.6 °F 84.6 °F 71.6 °F 74% 30.00 in 10.0 mi SSW 4.6 mph - N/A   Clear
2:55 AM 80.6 °F 84.6 °F 71.6 °F 74% 30.00 in 10.0 mi SSW 4.6 mph - N/A   Clear
3:15 AM 80.6 °F 84.6 °F 71.6 °F 74% 29.99 in 10.0 mi South 4.6 mph - N/A   Clear
3:35 AM 80.6 °F 85.4 °F 73.4 °F 79% 29.99 in 10.0 mi SSW 4.6 mph - N/A   Clear
4:15 AM 78.8 °F - 73.4 °F 83% 29.99 in 10.0 mi SSW 4.6 mph - N/A   Clear
4:35 AM 78.8 °F - 71.6 °F 78% 29.98 in 7.0 mi SW 3.5 mph - N/A   Clear
4:55 AM 78.8 °F - 71.6 °F 78% 29.99 in 7.0 mi SSW 4.6 mph - N/A   Clear
5:15 AM 78.8 °F - 71.6 °F 78% 29.99 in 10.0 mi SW 3.5 mph - N/A   Clear
5:35 AM 78.8 °F - 71.6 °F 78% 29.99 in 10.0 mi SSW 3.5 mph - N/A   Clear
5:55 AM 78.8 °F - 71.6 °F 78% 30.00 in 10.0 mi Calm Calm - N/A   Clear
6:15 AM 78.8 °F - 73.4 °F 83% 30.00 in 7.0 mi SW 3.5 mph - N/A   Clear
6:35 AM 78.8 °F - 73.4 °F 83% 30.00 in 10.0 mi Calm Calm - N/A   Scattered Clouds
6:55 AM 78.8 °F - 73.4 °F 83% 30.01 in 7.0 mi Calm Calm - N/A   Clear
7:15 AM 78.8 °F - 73.4 °F 83% 30.02 in 5.0 mi SW 3.5 mph - N/A   Haze
7:35 AM 78.8 °F - 71.6 °F 78% 30.01 in 7.0 mi SSW 4.6 mph - N/A   Clear
7:55 AM 80.6 °F 84.6 °F 71.6 °F 74% 30.02 in 5.0 mi SSW 3.5 mph - N/A   Haze
8:15 AM 80.6 °F 84.6 °F 71.6 °F 74% 30.03 in 7.0 mi South 3.5 mph - N/A   Clear
8:35 AM 80.6 °F 83.9 °F 69.8 °F 70% 30.03 in 7.0 mi SSW 6.9 mph - N/A   Clear
8:55 AM 82.4 °F 86.3 °F 69.8 °F 66% 30.04 in 7.0 mi SSW 6.9 mph - N/A   Clear
9:15 AM 82.4 °F 86.3 °F 69.8 °F 66% 30.04 in 7.0 mi South 5.8 mph - N/A   Clear
9:35 AM 82.4 °F 86.3 °F 69.8 °F 66% 30.04 in 7.0 mi SSW 4.6 mph - N/A   Scattered Clouds
9:55 AM 84.2 °F 88.4 °F 69.8 °F 62% 30.04 in 10.0 mi SW 8.1 mph - N/A   Scattered Clouds
10:15 AM 84.2 °F 89.6 °F 71.6 °F 66% 30.05 in 7.0 mi South 6.9 mph - N/A   Scattered Clouds
10:35 AM 84.2 °F 89.6 °F 71.6 °F 66% 30.05 in 7.0 mi SSE 5.8 mph - N/A   Clear
10:55 AM 86.0 °F 91.8 °F 71.6 °F 62% 30.05 in 10.0 mi South 4.6 mph - N/A   Clear
11:15 AM 86.0 °F 91.8 °F 71.6 °F 62% 30.05 in 7.0 mi SSW 8.1 mph - N/A   Clear
11:35 AM 86.0 °F 91.8 °F 71.6 °F 62% 30.05 in 7.0 mi South 6.9 mph - N/A   Clear
11:55 AM 86.0 °F 91.8 °F 71.6 °F 62% 30.04 in 7.0 mi South 3.5 mph - N/A   Clear
12:15 PM 86.0 °F 91.8 °F 71.6 °F 62% 30.04 in 7.0 mi South 11.5 mph - N/A   Scattered Clouds
12:35 PM 86.0 °F 93.4 °F 73.4 °F 66% 30.03 in 7.0 mi SSW 6.9 mph - N/A   Clear
12:55 PM 87.8 °F 95.6 °F 73.4 °F 62% 30.02 in 5.0 mi South 8.1 mph - N/A   Haze
1:15 PM 87.8 °F 95.6 °F 73.4 °F 62% 30.01 in 7.0 mi South 9.2 mph - N/A Thunderstorm Clear
1:35 PM 86.0 °F 93.4 °F 73.4 °F 66% 30.01 in 7.0 mi SSW 9.2 mph - N/A   Clear
1:55 PM 86.0 °F 93.4 °F 73.4 °F 66% 30.01 in 5.0 mi SSW 11.5 mph 17.3 mph N/A Thunderstorm Haze
2:15 PM 87.8 °F 95.6 °F 73.4 °F 62% 30.01 in 7.0 mi SSW 8.1 mph 16.1 mph N/A   Clear
2:35 PM 87.8 °F 95.6 °F 73.4 °F 62% 30.01 in 7.0 mi SSW 8.1 mph 17.3 mph N/A Thunderstorm Scattered Clouds
2:55 PM 87.8 °F 95.6 °F 73.4 °F 62% 30.00 in 5.0 mi SSW 8.1 mph - N/A   Haze
3:15 PM 86.0 °F 91.8 °F 71.6 °F 62% 30.00 in 5.0 mi SSW 9.2 mph 18.4 mph N/A   Haze
3:35 PM 84.2 °F 89.6 °F 71.6 °F 66% 30.00 in 7.0 mi SW 5.8 mph - N/A   Scattered Clouds
3:55 PM 82.4 °F 87.2 °F 71.6 °F 70% 29.99 in 10.0 mi SW 5.8 mph - N/A   Scattered Clouds
4:15 PM 84.2 °F 88.4 °F 69.8 °F 62% 29.99 in 10.0 mi WSW 3.5 mph - N/A   Clear
4:35 PM 84.2 °F 89.6 °F 71.6 °F 66% 29.99 in 10.0 mi South 4.6 mph - N/A   Clear
4:55 PM 82.4 °F 87.2 °F 71.6 °F 70% 29.99 in 10.0 mi South 10.4 mph 17.3 mph N/A   Clear
5:15 PM 82.4 °F 87.2 °F 71.6 °F 70% 29.98 in 7.0 mi South 5.8 mph - N/A   Clear
5:35 PM 84.2 °F 89.6 °F 71.6 °F 66% 29.98 in 7.0 mi South 8.1 mph - N/A   Clear
5:55 PM 82.4 °F 87.2 °F 71.6 °F 70% 29.98 in 10.0 mi South 8.1 mph 16.1 mph N/A   Clear
6:15 PM 82.4 °F 87.2 °F 71.6 °F 70% 29.99 in 10.0 mi South 9.2 mph - N/A   Clear
6:35 PM 82.4 °F 87.2 °F 71.6 °F 70% 29.99 in 10.0 mi South 8.1 mph - N/A   Clear
6:55 PM 80.6 °F 84.6 °F 71.6 °F 74% 29.99 in 10.0 mi South 6.9 mph - N/A   Clear
7:15 PM 80.6 °F 84.6 °F 71.6 °F 74% 29.99 in 7.0 mi South 5.8 mph - N/A   Clear
7:35 PM 80.6 °F 84.6 °F 71.6 °F 74% 29.99 in 7.0 mi SSE 4.6 mph - N/A   Clear
7:55 PM 80.6 °F 83.9 °F 69.8 °F 70% 29.99 in 10.0 mi South 3.5 mph - N/A   Clear
8:15 PM 78.8 °F - 69.8 °F 74% 29.99 in 7.0 mi SSE 3.5 mph - N/A   Clear
8:35 PM 78.8 °F - 69.8 °F 74% 30.00 in 7.0 mi South 3.5 mph - N/A   Clear
8:55 PM 78.8 °F - 69.8 °F 74% 30.00 in 7.0 mi SSE 4.6 mph - N/A   Clear
9:15 PM 78.8 °F - 69.8 °F 74% 30.01 in 7.0 mi Calm Calm - N/A   Clear
9:35 PM 78.8 °F - 69.8 °F 74% 30.01 in 7.0 mi South 4.6 mph - N/A   Clear
9:55 PM 78.8 °F - 69.8 °F 74% 30.01 in 7.0 mi South 4.6 mph - N/A   Clear
10:15 PM 78.8 °F - 69.8 °F 74% 30.01 in 7.0 mi South 4.6 mph - N/A   Clear
10:35 PM 78.8 °F - 69.8 °F 74% 30.01 in 7.0 mi South 5.8 mph - N/A   Clear
10:55 PM 78.8 °F - 69.8 °F 74% 30.01 in 10.0 mi South 6.9 mph - N/A   Clear
11:15 PM 78.8 °F - 68.0 °F 69% 30.01 in 10.0 mi SSE 4.6 mph - N/A   Clear
11:35 PM 78.8 °F - 68.0 °F 69% 30.01 in 7.0 mi South 8.1 mph - N/A   Clear
11:55 PM 78.8 °F - 69.8 °F 74% 30.01 in 10.0 mi South 5.8 mph - N/A   Clear